TimeCST,TemperatureF,Dew PointF,Humidity,Sea Level PressureIn,VisibilityMPH,Wind Direction,Wind SpeedMPH,Gust SpeedMPH,PrecipitationIn,Events,Conditions,WindDirDegrees,DateUTC
12:15 AM,32.2,22.1,66,30.25,10.0,South,9.2,-,N/A,,Clear,190,2013-11-14 06:15:00
12:35 AM,32.0,22.1,67,30.25,10.0,South,6.9,-,N/A,,Clear,190,2013-11-14 06:35:00
12:55 AM,32.0,22.3,67,30.25,10.0,SSW,6.9,-,N/A,,Clear,200,2013-11-14 06:55:00
1:15 AM,31.8,22.1,67,30.25,10.0,South,6.9,-,N/A,,Clear,190,2013-11-14 07:15:00
1:35 AM,31.6,22.1,68,30.25,10.0,SSW,5.8,-,N/A,,Clear,200,2013-11-14 07:35:00
1:55 AM,31.6,22.1,68,30.25,10.0,South,9.2,-,N/A,,Clear,190,2013-11-14 07:55:00
2:15 AM,31.3,22.1,69,30.25,10.0,South,8.1,-,N/A,,Clear,190,2013-11-14 08:15:00
2:35 AM,31.1,21.9,69,30.25,10.0,South,8.1,-,N/A,,Clear,190,2013-11-14 08:35:00
2:55 AM,30.9,21.9,69,30.24,10.0,South,8.1,-,N/A,,Clear,190,2013-11-14 08:55:00
3:15 AM,30.6,21.9,70,30.24,10.0,South,8.1,-,N/A,,Clear,190,2013-11-14 09:15:00
3:35 AM,30.4,21.7,70,30.23,10.0,South,9.2,-,N/A,,Clear,190,2013-11-14 09:35:00
3:55 AM,30.2,21.6,70,30.22,10.0,South,10.4,-,N/A,,Clear,180,2013-11-14 09:55:00
4:15 AM,30.0,21.7,71,30.22,10.0,South,9.2,-,N/A,,Clear,190,2013-11-14 10:15:00
4:35 AM,30.2,21.6,70,30.21,10.0,South,10.4,-,N/A,,Clear,190,2013-11-14 10:35:00
4:55 AM,30.6,21.6,69,30.20,10.0,South,10.4,17.3,N/A,,Clear,190,2013-11-14 10:55:00
5:15 AM,30.2,21.4,70,30.20,10.0,South,8.1,-,N/A,,Clear,190,2013-11-14 11:15:00
5:35 AM,30.0,21.6,71,30.20,10.0,South,6.9,-,N/A,,Clear,190,2013-11-14 11:35:00
5:55 AM,29.3,21.6,73,30.19,10.0,South,9.2,-,N/A,,Clear,190,2013-11-14 11:55:00
6:15 AM,29.3,21.6,73,30.19,10.0,South,6.9,-,N/A,,Clear,190,2013-11-14 12:15:00
6:35 AM,29.3,21.6,73,30.18,10.0,South,6.9,-,N/A,,Clear,190,2013-11-14 12:35:00
6:55 AM,30.2,21.6,70,30.18,10.0,SSW,6.9,-,N/A,,Clear,200,2013-11-14 12:55:00
7:15 AM,30.7,21.7,69,30.18,10.0,South,5.8,-,N/A,,Clear,190,2013-11-14 13:15:00
7:35 AM,32.0,21.9,66,30.18,10.0,South,11.5,16.1,N/A,,Clear,190,2013-11-14 13:35:00
7:55 AM,33.4,22.1,63,30.18,10.0,South,9.2,16.1,N/A,,Clear,190,2013-11-14 13:55:00
8:15 AM,35.2,22.5,60,30.18,10.0,SSW,8.1,-,N/A,,Clear,200,2013-11-14 14:15:00
8:35 AM,37.4,23.0,56,30.17,10.0,SSW,6.9,-,N/A,,Clear,200,2013-11-14 14:35:00
8:55 AM,39.2,23.0,52,30.17,10.0,SSW,8.1,-,N/A,,Clear,200,2013-11-14 14:55:00
9:15 AM,41.4,23.0,48,30.17,10.0,SSW,8.1,-,N/A,,Clear,210,2013-11-14 15:15:00
9:35 AM,43.2,21.9,43,30.16,10.0,SSW,8.1,19.6,N/A,,Clear,200,2013-11-14 15:35:00
9:55 AM,44.6,21.0,39,30.16,10.0,SSW,13.8,19.6,N/A,,Clear,210,2013-11-14 15:55:00
10:15 AM,46.2,20.8,37,30.15,10.0,SW,9.2,17.3,N/A,,Clear,220,2013-11-14 16:15:00
10:35 AM,47.3,21.0,35,30.14,10.0,SSW,10.4,18.4,N/A,,Clear,210,2013-11-14 16:35:00
10:55 AM,49.1,21.0,33,30.13,10.0,SSW,12.7,19.6,N/A,,Clear,200,2013-11-14 16:55:00
11:15 AM,49.8,21.4,33,30.11,10.0,SSW,13.8,19.6,N/A,,Clear,210,2013-11-14 17:15:00
11:35 AM,50.2,21.6,33,30.10,10.0,SSW,10.4,17.3,N/A,,Clear,200,2013-11-14 17:35:00
11:55 AM,51.8,22.1,31,30.09,10.0,SSW,9.2,19.6,N/A,,Clear,200,2013-11-14 17:55:00
12:15 PM,52.9,21.6,29,30.07,10.0,SSW,11.5,19.6,N/A,,Clear,200,2013-11-14 18:15:00
12:35 PM,53.8,21.0,28,30.06,10.0,SSW,13.8,21.9,N/A,,Clear,210,2013-11-14 18:35:00
12:55 PM,55.4,21.2,26,30.06,10.0,SSW,11.5,17.3,N/A,,Clear,210,2013-11-14 18:55:00
1:15 PM,55.0,21.0,27,30.04,10.0,SSW,10.4,16.1,N/A,,Clear,200,2013-11-14 19:15:00
1:35 PM,55.4,22.3,28,30.03,10.0,South,11.5,17.3,N/A,,Clear,190,2013-11-14 19:35:00
1:55 PM,56.7,18.7,23,30.03,10.0,SW,11.5,19.6,N/A,,Clear,220,2013-11-14 19:55:00
2:15 PM,55.2,21.6,27,30.03,10.0,SSW,6.9,-,N/A,,Clear,200,2013-11-14 20:15:00
2:35 PM,55.4,21.7,27,30.03,10.0,SSW,9.2,-,N/A,,Clear,200,2013-11-14 20:35:00
2:55 PM,55.0,22.8,29,30.02,10.0,SSW,10.4,16.1,N/A,,Clear,200,2013-11-14 20:55:00
3:15 PM,54.0,22.3,29,30.02,10.0,South,12.7,18.4,N/A,,Clear,190,2013-11-14 21:15:00
3:35 PM,52.7,22.3,31,30.02,10.0,South,11.5,18.4,N/A,,Clear,190,2013-11-14 21:35:00
3:55 PM,52.0,21.6,30,30.02,10.0,South,9.2,18.4,N/A,,Clear,190,2013-11-14 21:55:00
4:15 PM,50.4,22.6,34,30.02,10.0,South,8.1,-,N/A,,Clear,190,2013-11-14 22:15:00
4:35 PM,49.5,24.3,37,30.02,10.0,South,10.4,-,N/A,,Clear,190,2013-11-14 22:35:00
4:55 PM,48.4,25.0,40,30.02,10.0,South,8.1,-,N/A,,Clear,190,2013-11-14 22:55:00
5:15 PM,45.9,25.5,45,30.03,10.0,South,5.8,-,N/A,,Clear,190,2013-11-14 23:15:00
5:35 PM,45.1,26.6,48,30.03,10.0,South,9.2,-,N/A,,Clear,190,2013-11-14 23:35:00
5:55 PM,44.8,27.0,50,30.02,10.0,South,12.7,-,N/A,,Clear,180,2013-11-14 23:55:00
6:15 PM,42.6,27.5,55,30.03,10.0,South,11.5,-,N/A,,Clear,180,2013-11-15 00:15:00
6:35 PM,42.1,27.9,57,30.03,10.0,South,11.5,-,N/A,,Clear,180,2013-11-15 00:35:00
6:55 PM,41.9,27.7,57,30.03,10.0,South,11.5,-,N/A,,Clear,180,2013-11-15 00:55:00
7:15 PM,42.3,27.9,57,30.03,10.0,South,13.8,-,N/A,,Clear,180,2013-11-15 01:15:00
7:35 PM,41.7,28.2,59,30.03,10.0,South,12.7,-,N/A,,Clear,180,2013-11-15 01:35:00
7:55 PM,41.0,28.4,61,30.03,10.0,South,10.4,-,N/A,,Clear,180,2013-11-15 01:55:00
8:15 PM,40.6,28.8,63,30.03,10.0,South,9.2,-,N/A,,Clear,180,2013-11-15 02:15:00
8:35 PM,40.6,28.4,62,30.03,10.0,South,10.4,-,N/A,,Clear,180,2013-11-15 02:35:00
8:55 PM,39.9,28.8,64,30.03,10.0,South,9.2,-,N/A,,Clear,180,2013-11-15 02:55:00
9:15 PM,40.6,28.8,63,30.03,10.0,South,12.7,-,N/A,,Clear,180,2013-11-15 03:15:00
9:35 PM,41.9,29.1,61,30.02,10.0,South,13.8,-,N/A,,Clear,180,2013-11-15 03:35:00
9:55 PM,43.2,28.9,57,30.02,10.0,South,11.5,16.1,N/A,,Clear,190,2013-11-15 03:55:00
10:15 PM,43.7,28.6,55,30.03,10.0,South,8.1,-,N/A,,Clear,190,2013-11-15 04:15:00
10:35 PM,43.2,28.8,57,30.03,10.0,South,6.9,-,N/A,,Clear,190,2013-11-15 04:35:00
10:55 PM,42.4,28.8,58,30.03,10.0,South,8.1,-,N/A,,Clear,190,2013-11-15 04:55:00
11:15 PM,41.9,28.8,60,30.03,10.0,SSW,6.9,-,N/A,,Clear,200,2013-11-15 05:15:00
11:35 PM,42.3,28.8,59,30.03,10.0,South,9.2,-,N/A,,Clear,190,2013-11-15 05:35:00
11:55 PM,41.9,28.8,60,30.03,10.0,SSW,4.6,-,N/A,,Clear,200,2013-11-15 05:55:00